Date String (YYYY-MM-DD hh:mm:ss) UTC,Instrument flags,absolute air pressure of the measurement (hPa),sample flow rate (lpm),inlet stack bypass flow (lpm),air temperature of the measurement (°C),ambient temperature measured by the external sensor (°C),aerosol sample conditioner tube jacket temperature (°C),OPC LED temperature (°C),internal box temperature (°C),relative humidity of the measurement (%),span deviation,mass concentration of particles derived from Lorenz-Mie calculation of OPC scattering (μg/m³),mass concentration of particles derived from Lorenz-Mie calculation of OPC scattering (μg/m³),mass concentration of particles derived from Lorenz-Mie calculation of OPC scattering (μg/m³)
DateTimeUTC,F1_M11,P_M11,Q1_M11,Q2_M11,T1_M11,T2_M11,T3_M11,T4_M11,T5_M11,U1_M11,ZSPAN_M11,X0_M11,X2_M11,X1_M11
2023-12-27 21:00:00,SystemResetWarning,0830.7,5.00,000.00,022.9,022.4,000.0,031.0,024.4,7.7,0000.0,0001.76,0000.50,0000.30
2023-12-27 21:01:00,SystemResetWarning,0830.7,5.00,000.00,022.9,022.4,000.0,031.0,024.4,8.0,0000.0,0001.75,0000.49,0000.30
2023-12-27 21:02:00,SystemResetWarning,0830.7,5.00,000.00,023.0,022.4,000.0,031.0,024.4,8.1,0000.0,0001.70,0000.46,0000.29
2023-12-27 21:03:00,SystemResetWarning,0830.7,5.00,000.00,023.0,022.5,000.0,031.1,024.4,8.0,0000.0,0001.69,0000.45,0000.28
2023-12-27 21:04:00,SystemResetWarning,0830.7,5.00,000.00,023.0,022.5,000.0,031.1,024.4,8.1,0000.0,0001.63,0000.43,0000.28
2023-12-27 21:05:00,SystemResetWarning,0830.7,5.00,000.00,023.0,022.5,000.0,031.1,024.4,7.9,0000.0,0001.59,0000.42,0000.27
2023-12-27 21:06:00,SystemResetWarning,0830.7,5.00,000.00,023.0,022.5,000.0,031.1,024.4,8.0,0000.0,0001.48,0000.40,0000.27
2023-12-27 21:07:00,SystemResetWarning,0830.7,5.00,000.00,023.0,022.5,000.0,031.1,024.4,7.9,0000.0,0001.18,0000.41,0000.27
2023-12-27 21:08:00,SystemResetWarning,0830.7,5.00,000.00,023.0,022.5,000.0,031.2,024.4,7.9,0000.0,0001.21,0000.43,0000.27
2023-12-27 21:09:00,SystemResetWarning,0830.7,5.00,000.00,023.0,022.4,000.0,031.2,024.4,7.8,0000.0,0002.01,0000.44,0000.28
2023-12-27 21:10:00,SystemResetWarning,0830.8,5.00,000.00,023.1,022.5,000.0,031.2,024.4,7.9,0000.0,0001.83,0000.44,0000.28
2023-12-27 21:11:00,SystemResetWarning,0830.8,5.00,000.00,023.1,022.5,000.0,031.2,024.5,8.0,0000.0,0001.73,0000.47,0000.27
2023-12-27 21:12:00,SystemResetWarning,0830.8,5.00,000.00,023.1,022.5,000.0,031.2,024.4,8.0,0000.0,0001.71,0000.47,0000.26
2023-12-27 21:13:00,SystemResetWarning,0830.8,5.00,000.00,023.1,022.5,000.0,031.2,024.5,8.1,0000.0,0001.71,0000.47,0000.26
2023-12-27 21:14:00,SystemResetWarning,0830.8,5.00,000.00,023.1,022.5,000.0,031.2,024.5,8.0,0000.0,0001.66,0000.45,0000.25
2023-12-27 21:15:00,SystemResetWarning,0830.8,5.00,000.00,023.1,022.5,000.0,031.2,024.5,8.1,0000.0,0001.65,0000.45,0000.25
2023-12-27 21:16:00,SystemResetWarning,0830.9,5.00,000.00,023.1,022.5,000.0,031.3,024.5,7.9,0000.0,0001.77,0000.42,0000.24
2023-12-27 21:17:00,SystemResetWarning,0830.9,5.01,000.00,023.1,022.5,000.0,031.3,024.6,7.7,0000.0,0001.88,0000.44,0000.24
2023-12-27 21:18:00,SystemResetWarning,0830.9,5.00,000.00,023.2,022.6,000.0,031.3,024.5,7.7,0000.0,0001.94,0000.45,0000.24
2023-12-27 21:19:00,SystemResetWarning,0830.9,5.00,000.00,023.2,022.6,000.0,031.3,024.5,7.7,0000.0,0001.89,0000.42,0000.23
2023-12-27 21:20:00,SystemResetWarning,0830.9,5.00,000.00,023.2,022.6,000.0,031.3,024.5,7.7,0000.0,0001.13,0000.40,0000.22
2023-12-27 21:21:00,SystemResetWarning,0830.9,4.99,000.00,023.2,022.6,000.0,031.3,024.6,7.7,0000.0,0000.96,0000.39,0000.22
2023-12-27 21:22:00,SystemResetWarning,0830.9,4.99,000.00,023.2,022.6,000.0,031.3,024.6,7.9,0000.0,0000.90,0000.36,0000.22
2023-12-27 21:23:00,SystemResetWarning,0830.9,5.00,000.00,023.2,022.5,000.0,031.3,024.6,7.9,0000.0,0000.84,0000.34,0000.22
2023-12-27 21:24:00,SystemResetWarning,0830.9,5.00,000.00,023.2,022.5,000.0,031.4,024.6,7.9,0000.0,0000.80,0000.32,0000.22
2023-12-27 21:25:00,SystemResetWarning,0830.9,5.00,000.00,023.2,022.6,000.0,031.4,024.6,7.8,0000.0,0000.91,0000.33,0000.22
2023-12-27 21:26:00,SystemResetWarning,0830.9,5.01,000.00,023.2,022.6,000.0,031.4,024.6,7.8,0000.0,0001.10,0000.35,0000.21
2023-12-27 21:27:00,SystemResetWarning,0830.9,5.01,000.00,023.2,022.6,000.0,031.4,024.6,7.7,0000.0,0001.31,0000.39,0000.22
2023-12-27 21:28:00,SystemResetWarning,0831.0,5.00,000.00,023.2,022.6,000.0,031.4,024.6,7.6,0000.0,0002.30,0000.40,0000.22
2023-12-27 21:29:00,SystemResetWarning,0830.9,5.00,000.00,023.2,022.6,000.0,031.4,024.6,7.7,0000.0,0002.17,0000.38,0000.22
2023-12-27 21:30:00,SystemResetWarning,0830.9,4.99,000.00,023.3,022.6,000.0,031.4,024.6,7.7,0000.0,0002.13,0000.37,0000.21
2023-12-27 21:31:00,SystemResetWarning,0830.9,5.01,000.00,023.3,022.6,000.0,031.4,024.6,7.6,0000.0,0002.16,0000.39,0000.21
2023-12-27 21:32:00,SystemResetWarning,0830.9,5.01,000.00,023.3,022.6,000.0,031.4,024.6,7.5,0000.0,0002.17,0000.39,0000.22
2023-12-27 21:33:00,SystemResetWarning,0830.9,4.99,000.00,023.3,022.6,000.0,031.4,024.7,7.7,0000.0,0002.38,0000.42,0000.22
2023-12-27 21:34:00,SystemResetWarning,0830.9,4.99,000.00,023.3,022.6,000.0,031.5,024.7,7.7,0000.0,0003.94,0000.44,0000.22
2023-12-27 21:35:00,SystemResetWarning,0830.9,5.00,000.00,023.3,022.6,000.0,031.5,024.7,7.7,0000.0,0003.97,0000.47,0000.22
2023-12-27 21:36:00,SystemResetWarning,0830.9,5.00,000.00,023.3,022.6,000.0,031.5,024.6,7.7,0000.0,0004.08,0000.49,0000.22
2023-12-27 21:37:00,SystemResetWarning,0830.9,5.00,000.00,023.3,022.6,000.0,031.5,024.6,7.7,0000.0,0003.99,0000.49,0000.22
2023-12-27 21:38:00,SystemResetWarning,0830.9,5.01,000.00,023.3,022.6,000.0,031.5,024.6,7.8,0000.0,0003.89,0000.48,0000.22
2023-12-27 21:39:00,SystemResetWarning,0831.0,5.00,000.00,023.3,022.6,000.0,031.5,024.7,7.8,0000.0,0003.26,0000.49,0000.22
2023-12-27 21:40:00,SystemResetWarning,0831.0,5.00,000.00,023.3,022.6,000.0,031.5,024.7,7.8,0000.0,0004.01,0000.51,0000.23
2023-12-27 21:41:00,SystemResetWarning,0831.1,4.99,000.00,023.3,022.6,000.0,031.5,024.7,7.7,0000.0,0004.10,0000.54,0000.23
2023-12-27 21:42:00,SystemResetWarning,0831.1,5.00,000.00,023.3,022.6,000.0,031.5,024.7,7.7,0000.0,0004.10,0000.53,0000.23
2023-12-27 21:43:00,SystemResetWarning,0831.1,5.00,000.00,023.3,022.6,000.0,031.5,024.7,7.6,0000.0,0004.12,0000.54,0000.23
2023-12-27 21:44:00,SystemResetWarning,0831.1,4.99,000.00,023.4,022.7,000.0,031.5,024.7,7.6,0000.0,0004.16,0000.55,0000.23
2023-12-27 21:45:00,SystemResetWarning,0831.1,5.00,000.00,023.4,022.7,000.0,031.5,024.7,7.6,0000.0,0003.20,0000.53,0000.23
2023-12-27 21:46:00,SystemResetWarning,0831.1,5.00,000.00,023.4,022.7,000.0,031.5,024.7,7.6,0000.0,0002.39,0000.50,0000.24
2023-12-27 21:47:00,SystemResetWarning,0831.2,5.00,000.00,023.4,022.7,000.0,031.6,024.7,7.6,0000.0,0002.39,0000.49,0000.23
2023-12-27 21:48:00,SystemResetWarning,0831.1,5.00,000.00,023.4,022.7,000.0,031.6,024.7,7.5,0000.0,0002.39,0000.50,0000.23
2023-12-27 21:49:00,SystemResetWarning,0831.2,5.00,000.00,023.4,022.7,000.0,031.6,024.7,7.5,0000.0,0002.33,0000.51,0000.23
2023-12-27 21:50:00,SystemResetWarning,0831.2,5.00,000.00,023.4,022.7,000.0,031.6,024.7,7.4,0000.0,0002.28,0000.52,0000.24
2023-12-27 21:51:00,SystemResetWarning,0831.1,5.00,000.00,023.4,022.7,000.0,031.6,024.7,7.4,0000.0,0001.44,0000.52,0000.24
2023-12-27 21:52:00,SystemResetWarning,0831.1,5.01,000.00,023.4,022.7,000.0,031.6,024.7,7.5,0000.0,0002.06,0000.49,0000.23
2023-12-27 21:53:00,SystemResetWarning,0831.1,5.00,000.00,023.4,022.7,000.0,031.6,024.7,7.6,0000.0,0002.53,0000.51,0000.23
2023-12-27 21:54:00,SystemResetWarning,0831.1,5.01,000.00,023.4,022.7,000.0,031.6,024.7,7.5,0000.0,0003.03,0000.51,0000.23
2023-12-27 21:55:00,SystemResetWarning,0831.1,5.01,000.00,023.4,022.7,000.0,031.6,024.7,7.5,0000.0,0002.97,0000.49,0000.23
2023-12-27 21:56:00,SystemResetWarning,0831.1,5.00,000.00,023.4,022.7,000.0,031.6,024.7,7.5,0000.0,0002.90,0000.46,0000.23
2023-12-27 21:57:00,SystemResetWarning,0831.1,4.99,000.00,023.4,022.7,000.0,031.6,024.7,7.6,0000.0,0002.91,0000.46,0000.22
2023-12-27 21:58:00,SystemResetWarning,0831.1,5.00,000.00,023.4,022.7,000.0,031.6,024.7,7.6,0000.0,0002.87,0000.46,0000.22
2023-12-27 21:59:00,SystemResetWarning,0831.1,5.00,000.00,023.4,022.7,000.0,031.6,024.7,7.8,0000.0,0002.68,0000.42,0000.22
